Location: Bremen
(53.0793°N, 8.8017°E)
Time: 23:29:12
(UTC+02:00)

Vanguard 2 Rocket - Pass Details

Date: 22 April 2024
Orbit: 556 x 3304 km, 32.9° (Epoch: 20 May)

Event Time Altitude Azimuth Distance (km) Brightness Sun altitude
Rises 19:32:15 0° 174° (S) 5,698 10.8 8.7°
Reaches altitude 10° 19:39:47 10° 147° (SSE) 5,349 10.4 7.5°
Maximum altitude 19:44:48 12° 129° (SE) 5,513 10.4 6.8°
Drops below altitude 10° 19:50:18 10° 111° (ESE) 5,981 10.4 6.0°
Sets 20:00:14 0° 88° (E) 7,278 10.9 4.5°
